| time (UTC) | temp F | wind direction | speed MPH | gust MPH | rain 1hr in | rain 24hr in | rain mn in | humidity % | barometer mb |
| 20260508181601 | 73 | 233 | 3.0 | 5.0 | 0.00 | 0.00 | 0.00 | 27 | 1007.0 |
| 20260508181059 | 73 | 248 | 3.0 | 3.0 | 0.00 | 0.00 | 0.00 | 27 | 1006.9 |
| 20260508180556 | 73 | 274 | 0.0 | 1.0 | 0.00 | 0.00 | 0.00 | 26 | 1006.7 |
| 20260508180052 | 74 | 304 | 3.0 | 5.0 | 0.00 | 0.00 | 0.00 | 30 | 1007.0 |
| 20260508175549 | 73 | 266 | 0.0 | 1.0 | 0.00 | 0.00 | 0.00 | 24 | 1007.1 |
| 20260508175046 | 73 | 301 | 0.0 | 0.0 | 0.00 | 0.00 | 0.00 | 27 | 1007.0 |
| 20260508174544 | 71 | 265 | 1.0 | 2.0 | 0.00 | 0.00 | 0.00 | 27 | 1007.1 |
| 20260508174040 | 72 | 341 | 1.0 | 2.0 | 0.00 | 0.00 | 0.00 | 27 | 1007.2 |
| 20260508173537 | 72 | 299 | 5.0 | 7.0 | 0.00 | 0.00 | 0.00 | 26 | 1007.1 |
| 20260508173033 | 71 | 274 | 3.0 | 3.0 | 0.00 | 0.00 | 0.00 | 26 | 1007.3 |
| 20260508172531 | 72 | 309 | 3.0 | 3.0 | 0.00 | 0.00 | 0.00 | 24 | 1007.4 |
| 20260508172027 | 72 | 305 | 2.0 | 2.0 | 0.00 | 0.00 | 0.00 | 29 | 1007.4 |
| 20260508171524 | 72 | 303 | 1.0 | 1.0 | 0.00 | 0.00 | 0.00 | 27 | 1007.7 |
| 20260508171020 | 71 | 314 | 0.0 | 1.0 | 0.00 | 0.00 | 0.00 | 29 | 1007.7 |
| 20260508170518 | 70 | 330 | 1.0 | 1.0 | 0.00 | 0.00 | 0.00 | 32 | 1007.7 |
| 20260508170015 | 71 | 298 | 1.0 | 2.0 | 0.00 | 0.00 | 0.00 | 29 | 1007.8 |
| 20260508165512 | 70 | 302 | 0.0 | 1.0 | 0.00 | 0.00 | 0.00 | 31 | 1007.9 |
| 20260508165009 | 69 | 311 | 0.0 | 0.0 | 0.00 | 0.00 | 0.00 | 30 | 1008.1 |
| 20260508164505 | 69 | 266 | 3.0 | 3.0 | 0.00 | 0.00 | 0.00 | 28 | 1008.0 |
| 20260508164002 | 71 | 320 | 1.0 | 1.0 | 0.00 | 0.00 | 0.00 | 30 | 1007.8 |
| 20260508163500 | 69 | 304 | 1.0 | 1.0 | 0.00 | 0.00 | 0.00 | 30 | 1007.9 |
| 20260508162955 | 69 | 313 | 2.0 | 3.0 | 0.00 | 0.00 | 0.00 | 31 | 1008.2 |
| 20260508162453 | 69 | 254 | 2.0 | 2.0 | 0.00 | 0.00 | 0.00 | 29 | 1008.4 |
| 20260508161950 | 69 | 278 | 3.0 | 3.0 | 0.00 | 0.00 | 0.00 | 34 | 1008.0 |
| 20260508161447 | 69 | 325 | 1.0 | 1.0 | 0.00 | 0.00 | 0.00 | 34 | 1008.3 |
| 20260508160944 | 68 | 315 | 2.0 | 2.0 | 0.00 | 0.00 | 0.00 | 32 | 1008.4 |
| 20260508160443 | 68 | 255 | 2.0 | 2.0 | 0.00 | 0.00 | 0.00 | 33 | 1008.4 |
| 20260508155938 | 68 | 234 | 4.0 | 5.0 | 0.00 | 0.00 | 0.00 | 39 | 1008.2 |
| 20260508155436 | 68 | 249 | 3.0 | 3.0 | 0.00 | 0.00 | 0.00 | 40 | 1008.4 |
| 20260508154932 | 67 | 291 | 0.0 | 1.0 | 0.00 | 0.00 | 0.00 | 42 | 1008.3 |
| 20260508154430 | 68 | 226 | 3.0 | 3.0 | 0.00 | 0.00 | 0.00 | 41 | 1008.3 |
| 20260508153926 | 68 | 306 | 0.0 | 1.0 | 0.00 | 0.00 | 0.00 | 40 | 1008.5 |
| 20260508153424 | 67 | 238 | 2.0 | 2.0 | 0.00 | 0.00 | 0.00 | 41 | 1008.7 |
| 20260508152920 | 66 | 303 | 0.0 | 1.0 | 0.00 | 0.00 | 0.00 | 42 | 1008.6 |
| 20260508152417 | 66 | 303 | 0.0 | 0.0 | 0.00 | 0.00 | 0.00 | 48 | 1008.7 |
| 20260508151913 | 65 | 303 | 0.0 | 0.0 | 0.00 | 0.00 | 0.00 | 50 | 1008.7 |
| 20260508151410 | 64 | 258 | 2.0 | 2.0 | 0.00 | 0.00 | 0.00 | 48 | 1008.8 |
| 20260508150906 | 65 | 303 | 1.0 | 2.0 | 0.00 | 0.00 | 0.00 | 48 | 1008.8 |
| 20260508150403 | 64 | 282 | 2.0 | 2.0 | 0.00 | 0.00 | 0.00 | 51 | 1008.7 |
| 20260508145859 | 63 | 276 | 1.0 | 3.0 | 0.00 | 0.00 | 0.00 | 52 | 1008.7 |
| 20260508145355 | 62 | 301 | 0.0 | 0.0 | 0.00 | 0.00 | 0.00 | 52 | 1008.8 |
| 20260508144852 | 61 | 270 | 3.0 | 3.0 | 0.00 | 0.00 | 0.00 | 55 | 1009.0 |
| 20260508144350 | 60 | 289 | 1.0 | 2.0 | 0.00 | 0.00 | 0.00 | 55 | 1008.9 |
| 20260508143847 | 60 | 288 | 2.0 | 2.0 | 0.00 | 0.00 | 0.00 | 54 | 1009.1 |
| 20260508143345 | 60 | 308 | 1.0 | 1.0 | 0.00 | 0.00 | 0.00 | 55 | 1009.2 |
| 20260508142841 | 58 | 316 | 0.0 | 1.0 | 0.00 | 0.00 | 0.00 | 56 | 1009.2 |
| 20260508142338 | 57 | 303 | 0.0 | 1.0 | 0.00 | 0.00 | 0.00 | 58 | 1009.4 |
| 20260508141834 | 57 | 314 | 0.0 | 0.0 | 0.00 | 0.00 | 0.00 | 57 | 1009.1 |
| 20260508141331 | 57 | 314 | 0.0 | 1.0 | 0.00 | 0.00 | 0.00 | 57 | 1009.2 |
| 20260508140829 | 56 | 311 | 0.0 | 0.0 | 0.00 | 0.00 | 0.00 | 60 | 1009.3 |
| 20260508140326 | 55 | 310 | 0.0 | 1.0 | 0.00 | 0.00 | 0.00 | 58 | 1009.4 |
| 20260508135821 | 54 | 300 | 1.0 | 1.0 | 0.00 | 0.00 | 0.00 | 58 | 1009.4 |
| 20260508135318 | 54 | 308 | 0.0 | 0.0 | 0.00 | 0.00 | 0.00 | 59 | 1009.5 |
| 20260508134814 | 54 | 299 | 0.0 | 1.0 | 0.00 | 0.00 | 0.00 | 62 | 1009.4 |
| 20260508134311 | 53 | 319 | 1.0 | 1.0 | 0.00 | 0.00 | 0.00 | 66 | 1009.3 |
| 20260508133808 | 53 | 319 | 0.0 | 0.0 | 0.00 | 0.00 | 0.00 | 66 | 1009.3 |
| 20260508133306 | 53 | 319 | 1.0 | 1.0 | 0.00 | 0.00 | 0.00 | 68 | 1009.6 |
| 20260508132803 | 52 | 320 | 0.0 | 0.0 | 0.00 | 0.00 | 0.00 | 68 | 1009.2 |
| 20260508132301 | 52 | 320 | 0.0 | 0.0 | 0.00 | 0.00 | 0.00 | 64 | 1009.4 |
| 20260508131756 | 51 | 320 | 0.0 | 0.0 | 0.00 | 0.00 | 0.00 | 63 | 1009.2 |
| 20260508131252 | 50 | 321 | 0.0 | 0.0 | 0.00 | 0.00 | 0.00 | 67 | 1009.2 |
| 20260508130749 | 50 | 321 | 0.0 | 0.0 | 0.00 | 0.00 | 0.00 | 73 | 1009.2 |
| 20260508130246 | 50 | 321 | 0.0 | 0.0 | 0.00 | 0.00 | 0.00 | 79 | 1009.2 |
| 20260508125742 | 48 | 321 | 0.0 | 0.0 | 0.00 | 0.00 | 0.00 | 72 | 1009.2 |
| 20260508125238 | 48 | 321 | 0.0 | 0.0 | 0.00 | 0.00 | 0.00 | 79 | 1009.1 |
| 20260508124737 | 47 | 321 | 0.0 | 0.0 | 0.00 | 0.00 | 0.00 | 81 | 1008.9 |
| 20260508124233 | 47 | 320 | 0.0 | 0.0 | 0.00 | 0.00 | 0.00 | 77 | 1008.8 |
| 20260508123732 | 46 | 321 | 0.0 | 0.0 | 0.00 | 0.00 | 0.00 | 77 | 1008.8 |
| 20260508123229 | 46 | 321 | 0.0 | 0.0 | 0.00 | 0.00 | 0.00 | 84 | 1009.1 |
| 20260508122725 | 46 | 321 | 0.0 | 0.0 | 0.00 | 0.00 | 0.00 | 84 | 1008.6 |
| 20260508122222 | 45 | 320 | 0.0 | 1.0 | 0.00 | 0.00 | 0.00 | 87 | 1008.9 |
| 20260508121720 | 44 | 320 | 0.0 | 0.0 | 0.00 | 0.00 | 0.00 | 89 | 1009.0 |
| 20260508121219 | 44 | 320 | 0.0 | 0.0 | 0.00 | 0.00 | 0.00 | 91 | 1008.9 |
| 20260508120715 | 44 | 320 | 0.0 | 0.0 | 0.00 | 0.00 | 0.00 | 92 | 1008.8 |
| 20260508120213 | 44 | 320 | 0.0 | 0.0 | 0.00 | 0.00 | 0.00 | 92 | 1009.0 |
| 20260508115711 | 44 | 320 | 0.0 | 0.0 | 0.00 | 0.00 | 0.00 | 93 | 1009.0 |
| 20260508115207 | 44 | 320 | 0.0 | 0.0 | 0.00 | 0.00 | 0.00 | 94 | 1008.6 |
| 20260508114704 | 43 | 320 | 0.0 | 0.0 | 0.00 | 0.00 | 0.00 | 94 | 1008.7 |
| 20260508114201 | 43 | 320 | 0.0 | 0.0 | 0.00 | 0.00 | 0.00 | 94 | 1008.9 |
| 20260508113658 | 43 | 320 | 0.0 | 0.0 | 0.00 | 0.00 | 0.00 | 94 | 1009.1 |
| 20260508113156 | 43 | 320 | 0.0 | 0.0 | 0.00 | 0.00 | 0.00 | 94 | 1008.5 |
| 20260508112652 | 43 | 320 | 0.0 | 0.0 | 0.00 | 0.00 | 0.00 | 94 | 1008.8 |
| 20260508112149 | 42 | 320 | 0.0 | 0.0 | 0.00 | 0.00 | 0.00 | 94 | 1008.9 |
| 20260508111645 | 42 | 320 | 0.0 | 0.0 | 0.00 | 0.00 | 0.00 | 93 | 1008.9 |
| 20260508111143 | 42 | 320 | 0.0 | 0.0 | 0.00 | 0.00 | 0.00 | 92 | 1009.2 |
| 20260508110640 | 42 | 320 | 0.0 | 0.0 | 0.00 | 0.00 | 0.00 | 93 | 1008.8 |
| 20260508110137 | 41 | 320 | 0.0 | 0.0 | 0.00 | 0.00 | 0.00 | 94 | 1008.8 |
| 20260508105632 | 41 | 320 | 0.0 | 0.0 | 0.00 | 0.00 | 0.00 | 94 | 1009.1 |
| 20260508105129 | 41 | 320 | 0.0 | 0.0 | 0.00 | 0.00 | 0.00 | 94 | 1008.9 |
| 20260508104627 | 41 | 320 | 0.0 | 0.0 | 0.00 | 0.00 | 0.00 | 94 | 1008.9 |
| 20260508104123 | 41 | 320 | 0.0 | 0.0 | 0.00 | 0.00 | 0.00 | 94 | 1009.0 |
| 20260508103621 | 41 | 320 | 0.0 | 0.0 | 0.00 | 0.00 | 0.00 | 94 | 1008.9 |
| 20260508103117 | 41 | 320 | 0.0 | 0.0 | 0.00 | 0.00 | 0.00 | 94 | 1009.0 |
| 20260508102615 | 41 | 320 | 0.0 | 0.0 | 0.00 | 0.00 | 0.00 | 93 | 1008.8 |
| 20260508102113 | 41 | 320 | 0.0 | 0.0 | 0.00 | 0.00 | 0.00 | 93 | 1009.0 |
| 20260508101610 | 41 | 320 | 0.0 | 0.0 | 0.00 | 0.00 | 0.00 | 93 | 1009.3 |
| 20260508101107 | 41 | 320 | 0.0 | 0.0 | 0.00 | 0.00 | 0.00 | 93 | 1009.2 |
| 20260508100605 | 41 | 320 | 0.0 | 0.0 | 0.00 | 0.00 | 0.00 | 93 | 1009.4 |
| 20260508095558 | 40 | 320 | 0.0 | 0.0 | 0.00 | 0.00 | 0.00 | 92 | 1009.3 |
| 20260508095055 | 40 | 320 | 0.0 | 0.0 | 0.00 | 0.00 | 0.00 | 92 | 1009.5 |
| 20260508094552 | 40 | 320 | 0.0 | 0.0 | 0.00 | 0.00 | 0.00 | 92 | 1009.0 |
| 20260508094049 | 40 | 320 | 0.0 | 0.0 | 0.00 | 0.00 | 0.00 | 92 | 1009.2 |
| 20260508093547 | 40 | 320 | 0.0 | 0.0 | 0.00 | 0.00 | 0.00 | 92 | 1009.4 |
| 20260508093044 | 40 | 320 | 0.0 | 0.0 | 0.00 | 0.00 | 0.00 | 92 | 1009.2 |
| 20260508092541 | 40 | 320 | 0.0 | 0.0 | 0.00 | 0.00 | 0.00 | 91 | 1009.4 |
| 20260508092040 | 40 | 320 | 0.0 | 0.0 | 0.00 | 0.00 | 0.00 | 91 | 1009.3 |
| 20260508091537 | 41 | 320 | 0.0 | 0.0 | 0.00 | 0.00 | 0.00 | 91 | 1009.1 |
| 20260508091034 | 41 | 320 | 0.0 | 0.0 | 0.00 | 0.00 | 0.00 | 90 | 1009.3 |
| 20260508090532 | 41 | 320 | 0.0 | 0.0 | 0.00 | 0.00 | 0.00 | 90 | 1009.3 |
| 20260508090028 | 42 | 320 | 0.0 | 0.0 | 0.00 | 0.00 | 0.00 | 88 | 1008.9 |
| 20260508085525 | 41 | 320 | 0.0 | 0.0 | 0.00 | 0.00 | 0.00 | 84 | 1008.9 |
| 20260508085021 | 42 | 320 | 0.0 | 0.0 | 0.00 | 0.00 | 0.00 | 86 | 1009.1 |
| 20260508084519 | 42 | 320 | 0.0 | 0.0 | 0.00 | 0.00 | 0.00 | 89 | 1009.3 |
| 20260508084016 | 42 | 320 | 0.0 | 0.0 | 0.00 | 0.00 | 0.00 | 89 | 1009.5 |
| 20260508083513 | 41 | 320 | 0.0 | 0.0 | 0.00 | 0.00 | 0.00 | 88 | 1009.3 |
| 20260508083009 | 42 | 320 | 0.0 | 0.0 | 0.00 | 0.00 | 0.00 | 89 | 1009.4 |
| 20260508082505 | 42 | 320 | 0.0 | 0.0 | 0.00 | 0.00 | 0.00 | 89 | 1009.3 |
| 20260508082003 | 43 | 320 | 0.0 | 0.0 | 0.00 | 0.00 | 0.00 | 88 | 1009.1 |
| 20260508081500 | 42 | 320 | 0.0 | 0.0 | 0.00 | 0.00 | 0.00 | 86 | 1009.2 |
| 20260508080956 | 42 | 320 | 0.0 | 0.0 | 0.00 | 0.00 | 0.00 | 84 | 1009.0 |
| 20260508080454 | 43 | 320 | 0.0 | 0.0 | 0.00 | 0.00 | 0.00 | 85 | 1008.8 |
| 20260508075951 | 43 | 320 | 0.0 | 0.0 | 0.00 | 0.00 | 0.00 | 87 | 1009.0 |
| 20260508075448 | 42 | 320 | 0.0 | 0.0 | 0.00 | 0.00 | 0.00 | 89 | 1009.1 |
| 20260508074945 | 42 | 320 | 0.0 | 0.0 | 0.00 | 0.00 | 0.00 | 88 | 1009.1 |
| 20260508074443 | 43 | 320 | 0.0 | 0.0 | 0.00 | 0.00 | 0.00 | 87 | 1009.0 |
| 20260508073940 | 43 | 320 | 0.0 | 0.0 | 0.00 | 0.00 | 0.00 | 86 | 1009.2 |
| 20260508073437 | 43 | 320 | 0.0 | 0.0 | 0.00 | 0.00 | 0.00 | 87 | 1009.3 |
| 20260508072934 | 42 | 320 | 0.0 | 0.0 | 0.00 | 0.00 | 0.00 | 88 | 1009.3 |
| 20260508072430 | 42 | 320 | 0.0 | 0.0 | 0.00 | 0.00 | 0.00 | 87 | 1009.4 |
| 20260508071927 | 42 | 320 | 0.0 | 0.0 | 0.00 | 0.00 | 0.00 | 90 | 1009.3 |
| 20260508071425 | 42 | 320 | 0.0 | 0.0 | 0.00 | 0.00 | 0.00 | 91 | 1009.5 |
| 20260508070923 | 41 | 320 | 0.0 | 0.0 | 0.00 | 0.00 | 0.00 | 90 | 1009.6 |
| 20260508070421 | 41 | 320 | 0.0 | 0.0 | 0.00 | 0.00 | 0.00 | 90 | 1009.5 |
| 20260508065918 | 42 | 320 | 0.0 | 0.0 | 0.00 | 0.00 | 0.00 | 91 | 1009.4 |
| 20260508065416 | 42 | 320 | 0.0 | 0.0 | 0.00 | 0.00 | 0.00 | 90 | 1009.4 |
| 20260508064914 | 42 | 320 | 0.0 | 0.0 | 0.00 | 0.00 | 0.00 | 89 | 1009.5 |
| 20260508064411 | 42 | 320 | 0.0 | 0.0 | 0.00 | 0.00 | 0.00 | 89 | 1009.5 |
| 20260508063909 | 42 | 320 | 0.0 | 0.0 | 0.00 | 0.00 | 0.00 | 89 | 1009.5 |
| 20260508063406 | 42 | 320 | 0.0 | 0.0 | 0.00 | 0.00 | 0.00 | 89 | 1009.4 |
| 20260508062903 | 43 | 320 | 0.0 | 0.0 | 0.00 | 0.00 | 0.00 | 89 | 1009.4 |
| 20260508062401 | 43 | 320 | 0.0 | 0.0 | 0.00 | 0.00 | 0.00 | 89 | 1009.5 |
| 20260508061858 | 43 | 320 | 0.0 | 0.0 | 0.00 | 0.00 | 0.00 | 90 | 1009.3 |
| 20260508061355 | 43 | 320 | 0.0 | 0.0 | 0.00 | 0.00 | 0.00 | 92 | 1009.4 |
| 20260508060851 | 43 | 320 | 0.0 | 0.0 | 0.00 | 0.00 | 0.00 | 92 | 1009.3 |
| 20260508060349 | 43 | 320 | 0.0 | 0.0 | 0.00 | 0.00 | 0.00 | 92 | 1009.7 |
| 20260508055844 | 42 | 320 | 0.0 | 0.0 | 0.00 | 0.00 | 0.00 | 91 | 1009.6 |
| 20260508055342 | 42 | 320 | 0.0 | 0.0 | 0.00 | 0.00 | 0.00 | 91 | 1009.4 |
| 20260508054838 | 42 | 320 | 0.0 | 0.0 | 0.00 | 0.00 | 0.00 | 93 | 1009.7 |
| 20260508054336 | 43 | 320 | 0.0 | 0.0 | 0.00 | 0.00 | 0.00 | 92 | 1009.6 |
| 20260508053832 | 42 | 320 | 0.0 | 0.0 | 0.00 | 0.00 | 0.00 | 92 | 1009.4 |
| 20260508053330 | 42 | 320 | 0.0 | 0.0 | 0.00 | 0.00 | 0.00 | 93 | 1009.6 |
| 20260508052827 | 43 | 320 | 0.0 | 0.0 | 0.00 | 0.00 | 0.00 | 94 | 1009.4 |
| 20260508052324 | 43 | 320 | 0.0 | 0.0 | 0.00 | 0.00 | 0.00 | 94 | 1009.4 |
| 20260508051821 | 43 | 320 | 0.0 | 0.0 | 0.00 | 0.00 | 0.00 | 94 | 1009.7 |
| 20260508051316 | 44 | 320 | 0.0 | 0.0 | 0.00 | 0.00 | 0.00 | 94 | 1009.4 |
| 20260508050812 | 44 | 320 | 0.0 | 0.0 | 0.00 | 0.00 | 0.00 | 94 | 1009.7 |
| 20260508050310 | 43 | 320 | 0.0 | 0.0 | 0.00 | 0.00 | 0.00 | 93 | 1009.5 |
| 20260508045805 | 43 | 320 | 0.0 | 0.0 | 0.00 | 0.01 | 0.01 | 93 | 1010.0 |
| 20260508045306 | 44 | 320 | 0.0 | 0.0 | 0.00 | 0.01 | 0.01 | 93 | 1009.8 |
| 20260508044801 | 44 | 320 | 0.0 | 0.0 | 0.00 | 0.01 | 0.01 | 93 | 1009.9 |
| 20260508044257 | 44 | 320 | 0.0 | 0.0 | 0.00 | 0.01 | 0.01 | 93 | 1009.9 |
| 20260508043753 | 44 | 320 | 0.0 | 0.0 | 0.00 | 0.01 | 0.01 | 92 | 1009.7 |
| 20260508043251 | 44 | 320 | 0.0 | 0.0 | 0.00 | 0.01 | 0.01 | 91 | 1009.7 |
| 20260508042747 | 44 | 320 | 0.0 | 0.0 | 0.00 | 0.01 | 0.01 | 91 | 1009.7 |
| 20260508042245 | 45 | 320 | 0.0 | 0.0 | 0.00 | 0.01 | 0.01 | 91 | 1009.6 |
| 20260508041741 | 45 | 320 | 0.0 | 0.0 | 0.00 | 0.01 | 0.01 | 90 | 1009.8 |
| 20260508041238 | 45 | 320 | 0.0 | 0.0 | 0.00 | 0.01 | 0.01 | 89 | 1009.9 |
| 20260508040734 | 46 | 320 | 0.0 | 0.0 | 0.00 | 0.01 | 0.01 | 89 | 1009.8 |
| 20260508040232 | 46 | 320 | 0.0 | 0.0 | 0.00 | 0.01 | 0.01 | 88 | 1009.8 |
| 20260508035729 | 46 | 320 | 0.0 | 0.0 | 0.00 | 0.01 | 0.01 | 88 | 1009.8 |
| 20260508035226 | 46 | 320 | 0.0 | 0.0 | 0.00 | 0.01 | 0.01 | 87 | 1009.9 |
| 20260508034723 | 46 | 320 | 0.0 | 0.0 | 0.00 | 0.01 | 0.01 | 86 | 1009.7 |
| 20260508034220 | 46 | 320 | 1.0 | 1.0 | 0.00 | 0.01 | 0.01 | 87 | 1009.8 |
| 20260508033717 | 47 | 320 | 0.0 | 0.0 | 0.00 | 0.01 | 0.01 | 86 | 1009.7 |
| 20260508033216 | 48 | 320 | 0.0 | 1.0 | 0.00 | 0.01 | 0.01 | 86 | 1009.7 |
| 20260508032713 | 48 | 320 | 0.0 | 0.0 | 0.00 | 0.01 | 0.01 | 86 | 1009.7 |
| 20260508032209 | 48 | 320 | 0.0 | 0.0 | 0.00 | 0.01 | 0.01 | 86 | 1009.8 |
| 20260508031707 | 48 | 320 | 0.0 | 0.0 | 0.00 | 0.01 | 0.01 | 85 | 1009.7 |
| 20260508031203 | 48 | 320 | 0.0 | 0.0 | 0.00 | 0.01 | 0.01 | 86 | 1009.6 |
| 20260508030659 | 48 | 320 | 0.0 | 0.0 | 0.00 | 0.01 | 0.01 | 85 | 1009.5 |
| 20260508030157 | 48 | 320 | 0.0 | 0.0 | 0.00 | 0.01 | 0.01 | 85 | 1009.7 |
| 20260508025653 | 49 | 320 | 0.0 | 0.0 | 0.00 | 0.01 | 0.01 | 83 | 1009.6 |
| 20260508025150 | 49 | 320 | 0.0 | 0.0 | 0.00 | 0.01 | 0.01 | 83 | 1009.4 |
| 20260508024646 | 49 | 320 | 0.0 | 0.0 | 0.00 | 0.01 | 0.01 | 81 | 1009.5 |
| 20260508024143 | 50 | 320 | 0.0 | 0.0 | 0.00 | 0.01 | 0.01 | 82 | 1009.4 |
| 20260508023639 | 50 | 320 | 0.0 | 0.0 | 0.00 | 0.01 | 0.01 | 81 | 1009.2 |
| 20260508023137 | 51 | 320 | 0.0 | 0.0 | 0.00 | 0.01 | 0.01 | 80 | 1009.4 |
| 20260508022633 | 51 | 320 | 0.0 | 0.0 | 0.00 | 0.01 | 0.01 | 75 | 1009.3 |
| 20260508022130 | 51 | 320 | 0.0 | 0.0 | 0.00 | 0.01 | 0.01 | 76 | 1009.3 |
| 20260508021626 | 52 | 320 | 0.0 | 0.0 | 0.00 | 0.01 | 0.01 | 78 | 1009.2 |
| 20260508021121 | 52 | 320 | 0.0 | 0.0 | 0.00 | 0.01 | 0.01 | 78 | 1009.0 |
| 20260508020620 | 52 | 320 | 0.0 | 0.0 | 0.00 | 0.01 | 0.01 | 77 | 1009.0 |
| 20260508020117 | 53 | 320 | 0.0 | 0.0 | 0.00 | 0.01 | 0.01 | 75 | 1009.0 |
| 20260508015615 | 53 | 320 | 0.0 | 0.0 | 0.00 | 0.01 | 0.01 | 74 | 1008.7 |
| 20260508015111 | 54 | 320 | 0.0 | 0.0 | 0.00 | 0.01 | 0.01 | 70 | 1008.6 |
| 20260508014607 | 55 | 320 | 0.0 | 0.0 | 0.00 | 0.01 | 0.01 | 71 | 1008.5 |
| 20260508014104 | 56 | 320 | 0.0 | 0.0 | 0.00 | 0.01 | 0.01 | 67 | 1008.5 |
| 20260508013600 | 57 | 320 | 0.0 | 0.0 | 0.00 | 0.01 | 0.01 | 61 | 1008.5 |
| 20260508013057 | 58 | 320 | 0.0 | 0.0 | 0.00 | 0.01 | 0.01 | 58 | 1008.3 |
| 20260508012555 | 59 | 320 | 0.0 | 0.0 | 0.00 | 0.01 | 0.01 | 52 | 1008.3 |
| 20260508012052 | 60 | 320 | 0.0 | 0.0 | 0.00 | 0.01 | 0.01 | 47 | 1008.4 |
| 20260508011550 | 59 | 320 | 0.0 | 0.0 | 0.00 | 0.01 | 0.01 | 52 | 1008.2 |
| 20260508011047 | 60 | 320 | 0.0 | 0.0 | 0.00 | 0.01 | 0.01 | 59 | 1008.1 |
| 20260508010544 | 61 | 320 | 0.0 | 0.0 | 0.00 | 0.01 | 0.01 | 51 | 1008.2 |
| 20260508010041 | 61 | 321 | 0.0 | 0.0 | 0.00 | 0.01 | 0.01 | 47 | 1008.0 |
| 20260508005538 | 62 | 321 | 0.0 | 0.0 | 0.00 | 0.01 | 0.01 | 45 | 1008.1 |
| 20260508005034 | 62 | 321 | 0.0 | 0.0 | 0.00 | 0.01 | 0.01 | 45 | 1007.9 |
| 20260508004530 | 63 | 321 | 0.0 | 0.0 | 0.00 | 0.01 | 0.01 | 43 | 1007.9 |
| 20260508004027 | 63 | 321 | 0.0 | 0.0 | 0.00 | 0.01 | 0.01 | 41 | 1007.9 |
| 20260508003524 | 63 | 321 | 0.0 | 0.0 | 0.00 | 0.01 | 0.01 | 44 | 1007.9 |
| 20260508003022 | 64 | 321 | 0.0 | 0.0 | 0.00 | 0.01 | 0.01 | 43 | 1007.8 |
| 20260508002517 | 64 | 321 | 0.0 | 0.0 | 0.00 | 0.01 | 0.01 | 40 | 1007.7 |
| 20260508002015 | 64 | 321 | 0.0 | 0.0 | 0.00 | 0.01 | 0.01 | 44 | 1007.7 |
| 20260508001510 | 64 | 321 | 0.0 | 0.0 | 0.00 | 0.01 | 0.01 | 41 | 1007.9 |
| 20260508001007 | 64 | 321 | 0.0 | 1.0 | 0.00 | 0.01 | 0.01 | 38 | 1007.6 |
| 20260508000503 | 65 | 320 | 0.0 | 0.0 | 0.00 | 0.01 | 0.01 | 40 | 1007.7 |
| 20260508000000 | 66 | 320 | 0.0 | 0.0 | 0.00 | 0.01 | 0.01 | 39 | 1007.8 |
| 20260507235456 | 68 | 318 | 0.0 | 1.0 | 0.00 | 0.01 | 0.01 | 36 | 1007.8 |
| 20260507234954 | 69 | 319 | 0.0 | 1.0 | 0.00 | 0.01 | 0.01 | 37 | 1007.7 |
| 20260507234450 | 71 | 317 | 1.0 | 1.0 | 0.00 | 0.01 | 0.01 | 36 | 1007.7 |
| 20260507233949 | 69 | 318 | 0.0 | 0.0 | 0.00 | 0.01 | 0.01 | 39 | 1007.8 |
| 20260507233444 | 68 | 318 | 0.0 | 0.0 | 0.00 | 0.01 | 0.01 | 37 | 1007.9 |
| 20260507232943 | 68 | 318 | 0.0 | 0.0 | 0.00 | 0.01 | 0.01 | 40 | 1007.7 |
| 20260507232438 | 69 | 315 | 0.0 | 0.0 | 0.00 | 0.01 | 0.01 | 33 | 1007.9 |
| 20260507231936 | 69 | 315 | 1.0 | 1.0 | 0.00 | 0.01 | 0.01 | 38 | 1007.7 |
| 20260507231432 | 69 | 316 | 2.0 | 2.0 | 0.00 | 0.01 | 0.01 | 33 | 1007.7 |
| 20260507230929 | 68 | 312 | 0.0 | 1.0 | 0.00 | 0.01 | 0.01 | 38 | 1007.7 |
| 20260507230426 | 68 | 307 | 0.0 | 0.0 | 0.00 | 0.01 | 0.01 | 36 | 1007.8 |
| 20260507225926 | 69 | 316 | 1.0 | 1.0 | 0.00 | 0.01 | 0.01 | 33 | 1007.4 |
| 20260507225423 | 70 | 312 | 1.0 | 1.0 | 0.00 | 0.01 | 0.01 | 34 | 1007.7 |
| 20260507224919 | 69 | 314 | 1.0 | 1.0 | 0.00 | 0.01 | 0.01 | 33 | 1007.8 |
| 20260507224415 | 68 | 312 | 0.0 | 0.0 | 0.00 | 0.01 | 0.01 | 37 | 1007.9 |
| 20260507223912 | 68 | 308 | 1.0 | 1.0 | 0.00 | 0.01 | 0.01 | 36 | 1007.9 |
| 20260507223408 | 69 | 311 | 0.0 | 1.0 | 0.00 | 0.01 | 0.01 | 36 | 1008.0 |
| 20260507222905 | 69 | 305 | 1.0 | 1.0 | 0.00 | 0.01 | 0.01 | 35 | 1008.2 |
| 20260507222402 | 70 | 316 | 1.0 | 1.0 | 0.00 | 0.01 | 0.01 | 35 | 1007.9 |
| 20260507221859 | 70 | 311 | 1.0 | 1.0 | 0.00 | 0.01 | 0.01 | 38 | 1008.0 |
| 20260507221355 | 70 | 313 | 1.0 | 1.0 | 0.00 | 0.01 | 0.01 | 36 | 1008.0 |
| 20260507220851 | 70 | 306 | 1.0 | 2.0 | 0.00 | 0.01 | 0.01 | 32 | 1007.8 |
| 20260507220349 | 71 | 309 | 1.0 | 2.0 | 0.00 | 0.01 | 0.01 | 34 | 1007.9 |
| 20260507215846 | 71 | 301 | 1.0 | 1.0 | 0.00 | 0.01 | 0.01 | 33 | 1007.9 |
| 20260507215342 | 70 | 277 | 1.0 | 2.0 | 0.00 | 0.01 | 0.01 | 34 | 1007.9 |
| 20260507214840 | 69 | 312 | 0.0 | 0.0 | 0.00 | 0.01 | 0.01 | 34 | 1007.9 |
| 20260507214338 | 70 | 308 | 1.0 | 1.0 | 0.00 | 0.01 | 0.01 | 36 | 1008.0 |
| 20260507213832 | 69 | 299 | 1.0 | 2.0 | 0.00 | 0.01 | 0.01 | 34 | 1008.1 |
| 20260507213329 | 69 | 316 | 1.0 | 1.0 | 0.00 | 0.01 | 0.01 | 38 | 1008.1 |
| 20260507212826 | 69 | 319 | 1.0 | 1.0 | 0.00 | 0.01 | 0.01 | 39 | 1008.3 |
| 20260507212322 | 69 | 312 | 0.0 | 1.0 | 0.00 | 0.01 | 0.01 | 35 | 1008.2 |
| 20260507211818 | 69 | 303 | 0.0 | 0.0 | 0.00 | 0.01 | 0.01 | 37 | 1008.2 |
| 20260507211315 | 67 | 303 | 1.0 | 1.0 | 0.00 | 0.01 | 0.01 | 35 | 1008.4 |
| 20260507210812 | 66 | 293 | 0.0 | 0.0 | 0.00 | 0.01 | 0.01 | 34 | 1008.4 |
| 20260507210309 | 68 | 271 | 2.0 | 2.0 | 0.00 | 0.01 | 0.01 | 35 | 1008.3 |
| 20260507205805 | 68 | 321 | 3.0 | 5.0 | 0.00 | 0.01 | 0.01 | 33 | 1008.4 |
| 20260507205306 | 66 | 297 | 0.0 | 1.0 | 0.00 | 0.01 | 0.01 | 36 | 1008.6 |
| 20260507204758 | 66 | 198 | 3.0 | 3.0 | 0.00 | 0.01 | 0.01 | 35 | 1008.7 |
| 20260507204256 | 67 | 303 | 2.0 | 2.0 | 0.00 | 0.01 | 0.01 | 38 | 1008.7 |
| 20260507203754 | 68 | 289 | 2.0 | 2.0 | 0.00 | 0.01 | 0.01 | 35 | 1008.8 |
| 20260507203252 | 66 | 216 | 4.0 | 6.0 | 0.00 | 0.01 | 0.01 | 38 | 1008.7 |
| 20260507202748 | 67 | 255 | 1.0 | 2.0 | 0.00 | 0.01 | 0.01 | 35 | 1008.7 |
| 20260507202243 | 68 | 254 | 3.0 | 3.0 | 0.00 | 0.01 | 0.01 | 38 | 1008.6 |
| 20260507201738 | 67 | 309 | 0.0 | 1.0 | 0.00 | 0.01 | 0.01 | 39 | 1008.9 |
| 20260507201235 | 67 | 267 | 2.0 | 2.0 | 0.00 | 0.01 | 0.01 | 37 | 1009.0 |
| 20260507200732 | 68 | 313 | 3.0 | 3.0 | 0.00 | 0.01 | 0.01 | 36 | 1009.0 |
| 20260507200228 | 67 | 342 | 0.0 | 0.0 | 0.00 | 0.01 | 0.01 | 38 | 1009.0 |
| 20260507195724 | 68 | 229 | 5.0 | 7.0 | 0.00 | 0.01 | 0.01 | 35 | 1009.0 |
| 20260507195222 | 68 | 256 | 3.0 | 3.0 | 0.00 | 0.01 | 0.01 | 36 | 1009.2 |
| 20260507194719 | 67 | 274 | 2.0 | 2.0 | 0.00 | 0.01 | 0.01 | 40 | 1009.4 |
| 20260507194215 | 67 | 249 | 1.0 | 1.0 | 0.00 | 0.01 | 0.01 | 37 | 1009.5 |
| 20260507193712 | 67 | 256 | 3.0 | 3.0 | 0.00 | 0.01 | 0.01 | 38 | 1009.4 |
| 20260507193209 | 67 | 227 | 5.0 | 7.0 | 0.00 | 0.01 | 0.01 | 37 | 1009.5 |
| 20260507192704 | 66 | 265 | 3.0 | 5.0 | 0.00 | 0.01 | 0.01 | 42 | 1009.7 |
| 20260507192202 | 67 | 282 | 2.0 | 3.0 | 0.00 | 0.01 | 0.01 | 39 | 1009.7 |
| 20260507191657 | 66 | 282 | 4.0 | 5.0 | 0.00 | 0.01 | 0.01 | 43 | 1009.6 |
| 20260507191154 | 66 | 231 | 3.0 | 3.0 | 0.00 | 0.01 | 0.01 | 40 | 1009.7 |
| 20260507190651 | 66 | 313 | 3.0 | 3.0 | 0.00 | 0.01 | 0.01 | 40 | 1009.7 |
| 20260507190150 | 65 | 291 | 2.0 | 2.0 | 0.00 | 0.01 | 0.01 | 41 | 1009.8 |
| 20260507185648 | 65 | 293 | 0.0 | 0.0 | 0.00 | 0.01 | 0.01 | 42 | 1009.9 |
| 20260507185144 | 64 | 238 | 3.0 | 3.0 | 0.00 | 0.01 | 0.01 | 41 | 1009.7 |
| 20260507184642 | 65 | 247 | 5.0 | 5.0 | 0.00 | 0.01 | 0.01 | 41 | 1009.8 |
| 20260507184140 | 65 | 221 | 5.0 | 6.0 | 0.00 | 0.01 | 0.01 | 43 | 1009.7 |
| 20260507183636 | 66 | 295 | 2.0 | 2.0 | 0.00 | 0.01 | 0.01 | 44 | 1009.8 |
| 20260507183133 | 65 | 265 | 3.0 | 3.0 | 0.00 | 0.01 | 0.01 | 44 | 1009.8 |
| 20260507182630 | 64 | 229 | 5.0 | 6.0 | 0.00 | 0.01 | 0.01 | 43 | 1010.1 |
| 20260507182126 | 64 | 291 | 1.0 | 2.0 | 0.00 | 0.01 | 0.01 | 47 | 1010.2 |
| 20260507181622 | 64 | 298 | 1.0 | 2.0 | 0.00 | 0.01 | 0.01 | 44 | 1010.3 |